When you browse on this site, cookies collect data to enhance your experience and personalize the content and advertising you see.
Visit our Privacy Policy to learn more. By continuing to use the site, you agree to this use of cookies and data.
EN

Hourly Weather Jalalabad

Today, 11 July, Saturday

Time Temperature Precipitation Wind Pressure Humidity
00:00 +36°C° 0 mm 2 mps 703 mmHg 21%
01:00 +36°C° 0 mm 2 mps 703 mmHg 21%
02:00 +35°C° 0 mm 2 mps 702 mmHg 21%
03:00 +34°C° 0 mm 2 mps 702 mmHg 22%
04:00 +34°C° 0 mm 2 mps 702 mmHg 22%
05:00 +32°C° 0 mm 2 mps 702 mmHg 23%
06:00 +34°C° 0 mm 3 mps 702 mmHg 21%
07:00 +35°C° 0 mm 3 mps 703 mmHg 18%
08:00 +37°C° 0 mm 4 mps 703 mmHg 16%
09:00 +39°C° 0 mm 5 mps 703 mmHg 14%
10:00 +40°C° 0 mm 5 mps 703 mmHg 13%
11:00 +41°C° 0 mm 5 mps 702 mmHg 12%
12:00 +42°C° 0 mm 5 mps 702 mmHg 11%
13:00 +43°C° 0 mm 4 mps 702 mmHg 10%
14:00 +44°C° 0 mm 4 mps 702 mmHg 10%
15:00 +44°C° 0 mm 3 mps 701 mmHg 9%
16:00 +43°C° 0 mm 2 mps 701 mmHg 9%
17:00 +43°C° 0 mm 2 mps 701 mmHg 9%
18:00 +42°C° 0 mm 2 mps 701 mmHg 11%
19:00 +41°C° 0 mm 2 mps 701 mmHg 13%
20:00 +40°C° 0 mm 2 mps 701 mmHg 15%
21:00 +39°C° 0 mm 2 mps 701 mmHg 17%
22:00 +37°C° 0 mm 1 mps 701 mmHg 20%
23:00 +36°C° 0 mm 1 mps 701 mmHg 22%

Tomorrow, 12 July, Sunday

Time Temperature Precipitation Wind Pressure Humidity
00:00 +37°C° 0 mm 2 mps 701 mmHg 22%
01:00 +36°C° 0 mm 2 mps 701 mmHg 23%
02:00 +35°C° 0 mm 2 mps 701 mmHg 23%
03:00 +34°C° 0 mm 2 mps 701 mmHg 24%
04:00 +34°C° 0 mm 2 mps 701 mmHg 25%
05:00 +32°C° 0 mm 2 mps 701 mmHg 26%
06:00 +33°C° 0.1 mm 1 mps 701 mmHg 25%
07:00 +34°C° 0.1 mm 1 mps 701 mmHg 24%
08:00 +35°C° 0.1 mm 1 mps 702 mmHg 23%
09:00 +37°C° 0 mm 2 mps 702 mmHg 23%
10:00 +38°C° 0 mm 2 mps 702 mmHg 23%
11:00 +39°C° 0 mm 3 mps 702 mmHg 22%
12:00 +40°C° 0 mm 3 mps 702 mmHg 23%
13:00 +42°C° 0 mm 4 mps 702 mmHg 23%
14:00 +43°C° 0 mm 5 mps 702 mmHg 23%
15:00 +39°C° 2 mm 5 mps 701 mmHg 29%
16:00 +35°C° 2 mm 4 mps 701 mmHg 36%
17:00 +32°C° 2 mm 4 mps 700 mmHg 43%
18:00 +31°C° 0.1 mm 3 mps 701 mmHg 43%
19:00 +31°C° 0.1 mm 2 mps 702 mmHg 43%
20:00 +32°C° 0.1 mm 1 mps 702 mmHg 43%
21:00 +31°C° 0 mm 1 mps 702 mmHg 43%
22:00 +31°C° 0 mm 1 mps 703 mmHg 44%
23:00 +31°C° 0 mm 1 mps 703 mmHg 45%

Day after tomorrow, 13 July, Monday

Time Temperature Precipitation Wind Pressure Humidity
00:00 +31°C° 0.1 mm 1 mps 702 mmHg 47%
01:00 +29°C° 0.1 mm 0 mps 702 mmHg 48%
02:00 +28°C° 0.1 mm 0 mps 702 mmHg 50%
03:00 +28°C° 0 mm 0 mps 702 mmHg 51%
04:00 +28°C° 0 mm 0 mps 702 mmHg 53%
05:00 +27°C° 0 mm 0 mps 702 mmHg 54%
06:00 +28°C° 0 mm 0 mps 702 mmHg 50%
07:00 +29°C° 0 mm 0 mps 703 mmHg 47%
08:00 +30°C° 0 mm 0 mps 703 mmHg 43%
09:00 +33°C° 0 mm 1 mps 703 mmHg 40%
10:00 +34°C° 0 mm 1 mps 703 mmHg 36%
11:00 +35°C° 0 mm 1 mps 703 mmHg 33%
12:00 +37°C° 0 mm 2 mps 703 mmHg 30%
13:00 +39°C° 0 mm 2 mps 703 mmHg 28%
14:00 +40°C° 0 mm 3 mps 702 mmHg 26%
15:00 +40°C° 0.1 mm 3 mps 702 mmHg 25%
16:00 +40°C° 0.1 mm 3 mps 702 mmHg 24%
17:00 +42°C° 0.1 mm 3 mps 702 mmHg 24%
18:00 +40°C° 0.2 mm 3 mps 702 mmHg 27%
19:00 +39°C° 0.2 mm 3 mps 703 mmHg 30%
20:00 +38°C° 0.2 mm 3 mps 703 mmHg 33%
21:00 +37°C° 0.1 mm 3 mps 703 mmHg 34%
22:00 +37°C° 0.1 mm 2 mps 704 mmHg 36%
23:00 +36°C° 0.1 mm 1 mps 704 mmHg 38%

14 July, Tuesday

Time Temperature Precipitation Wind Pressure Humidity
00:00 +35°C° 0.2 mm 1 mps 704 mmHg 39%
01:00 +35°C° 0.2 mm 1 mps 704 mmHg 40%
02:00 +32°C° 0.2 mm 0 mps 703 mmHg 42%
03:00 +34°C° 0.2 mm 1 mps 703 mmHg 43%
04:00 +33°C° 0.2 mm 1 mps 703 mmHg 44%
05:00 +32°C° 0.2 mm 1 mps 704 mmHg 46%
06:00 +33°C° 0.2 mm 1 mps 704 mmHg 43%
07:00 +33°C° 0.2 mm 1 mps 704 mmHg 41%
08:00 +34°C° 0.2 mm 1 mps 704 mmHg 38%
09:00 +35°C° 0 mm 1 mps 704 mmHg 36%
10:00 +36°C° 0 mm 1 mps 704 mmHg 33%
11:00 +37°C° 0 mm 1 mps 704 mmHg 31%
12:00 +39°C° 0 mm 1 mps 704 mmHg 29%
13:00 +40°C° 0 mm 2 mps 703 mmHg 26%
14:00 +41°C° 0 mm 2 mps 703 mmHg 24%
15:00 +42°C° 0 mm 2 mps 703 mmHg 23%
16:00 +42°C° 0 mm 2 mps 703 mmHg 23%
17:00 +43°C° 0 mm 2 mps 703 mmHg 22%
18:00 +42°C° 0.2 mm 2 mps 703 mmHg 24%
19:00 +41°C° 0.2 mm 2 mps 703 mmHg 26%
20:00 +40°C° 0.2 mm 1 mps 704 mmHg 29%
21:00 +39°C° 0.4 mm 1 mps 704 mmHg 31%
22:00 +37°C° 0.4 mm 1 mps 704 mmHg 33%
23:00 +37°C° 0.4 mm 1 mps 704 mmHg 36%

15 July, Wednesday

Time Temperature Precipitation Wind Pressure Humidity
00:00 +36°C° 0.3 mm 1 mps 704 mmHg 37%
01:00 +35°C° 0.3 mm 1 mps 704 mmHg 39%
02:00 +35°C° 0.3 mm 2 mps 704 mmHg 41%
03:00 +33°C° 0.3 mm 1 mps 704 mmHg 44%
04:00 +33°C° 0.3 mm 1 mps 704 mmHg 46%
05:00 +30°C° 0.3 mm 0 mps 704 mmHg 49%
06:00 +31°C° 0 mm 0 mps 704 mmHg 46%
07:00 +33°C° 0 mm 1 mps 704 mmHg 43%
08:00 +34°C° 0 mm 1 mps 704 mmHg 40%
09:00 +35°C° 0 mm 1 mps 704 mmHg 37%
10:00 +37°C° 0 mm 2 mps 704 mmHg 35%
11:00 +38°C° 0 mm 2 mps 704 mmHg 33%
12:00 +39°C° 0 mm 3 mps 704 mmHg 31%
13:00 +40°C° 0 mm 3 mps 704 mmHg 29%
14:00 +42°C° 0 mm 4 mps 704 mmHg 27%
15:00 +41°C° 0.4 mm 4 mps 703 mmHg 29%
16:00 +40°C° 0.4 mm 5 mps 703 mmHg 31%
17:00 +39°C° 0.4 mm 6 mps 702 mmHg 33%
18:00 +39°C° 0.1 mm 5 mps 703 mmHg 34%
19:00 +37°C° 0.1 mm 3 mps 703 mmHg 35%
20:00 +37°C° 0.1 mm 2 mps 704 mmHg 36%
21:00 +36°C° 0.1 mm 1 mps 704 mmHg 38%
22:00 +35°C° 0.1 mm 1 mps 704 mmHg 40%
23:00 +35°C° 0.1 mm 1 mps 704 mmHg 43%

16 July, Thursday

Time Temperature Precipitation Wind Pressure Humidity
00:00 +34°C° 0.2 mm 1 mps 704 mmHg 44%
01:00 +34°C° 0.2 mm 2 mps 704 mmHg 46%
02:00 +32°C° 0.2 mm 2 mps 703 mmHg 48%
03:00 +32°C° 0.3 mm 2 mps 703 mmHg 50%
04:00 +32°C° 0.3 mm 1 mps 703 mmHg 52%
05:00 +29°C° 0.3 mm 0 mps 703 mmHg 53%
06:00 +30°C° 0.1 mm 0 mps 703 mmHg 51%
07:00 +30°C° 0.1 mm 0 mps 703 mmHg 49%
08:00 +33°C° 0.1 mm 1 mps 703 mmHg 46%
09:00 +34°C° 0.1 mm 1 mps 703 mmHg 44%
10:00 +36°C° 0.1 mm 2 mps 703 mmHg 41%
11:00 +37°C° 0.1 mm 3 mps 703 mmHg 38%
12:00 +38°C° 0 mm 3 mps 703 mmHg 36%
13:00 +39°C° 0 mm 3 mps 703 mmHg 33%
14:00 +40°C° 0 mm 3 mps 702 mmHg 31%
15:00 +40°C° 0 mm 3 mps 702 mmHg 31%
16:00 +41°C° 0 mm 4 mps 702 mmHg 31%
17:00 +41°C° 0 mm 4 mps 702 mmHg 31%
18:00 +38°C° 0.7 mm 4 mps 702 mmHg 38%
19:00 +36°C° 0.7 mm 4 mps 702 mmHg 45%
20:00 +34°C° 0.7 mm 4 mps 702 mmHg 51%
21:00 +33°C° 0.5 mm 3 mps 702 mmHg 51%
22:00 +32°C° 0.5 mm 2 mps 703 mmHg 50%
23:00 +31°C° 0.5 mm 1 mps 703 mmHg 50%
Show more